SR6WXP Weather Reports


time (UTC)temp
C
wind
direction
speed
KPH
gust
KPH
rain 1hr
cm
rain 24hr
cm
rain mn
cm
humidity
%
barometer
mb
20260507115229 20 261 12.9 22.5 0.00 0.00 0.00 61 988.1
20260507114829 20 245 12.9 19.3 0.00 0.00 0.00 59 988.0
20260507114427 20 247 16.1 22.5 0.00 0.00 0.00 58 988.0
20260507114027 20 253 16.1 24.1 0.00 0.00 0.00 58 988.0
20260507113627 20 239 14.5 20.9 0.00 0.00 0.00 57 988.0
20260507113227 20 234 9.7 17.7 0.00 0.00 0.00 57 987.9
20260507112826 20 212 16.1 25.7 0.00 0.00 0.00 56 987.9
20260507112424 20 236 12.9 22.5 0.00 0.00 0.00 59 987.9
20260507112024 20 244 12.9 19.3 0.00 0.00 0.00 60 987.8
20260507111624 20 250 14.5 19.3 0.00 0.00 0.00 60 987.8
20260507111224 20 266 14.5 24.1 0.00 0.00 0.00 61 987.8
20260507110824 20 252 14.5 24.1 0.00 0.00 0.00 60 987.8
20260507110422 20 248 14.5 22.5 0.00 0.00 0.00 60 987.8
20260507110020 20 248 17.7 22.5 0.00 0.00 0.00 61 987.7
20260507105619 20 239 11.3 20.9 0.00 0.00 0.00 60 987.7
20260507105219 20 228 16.1 25.7 0.00 0.00 0.00 61 987.6
20260507104819 19 228 12.9 19.3 0.00 0.00 0.00 60 987.6
20260507104417 19 219 16.1 25.7 0.00 0.00 0.00 60 987.6
20260507104017 19 211 14.5 20.9 0.00 0.00 0.00 61 987.6
20260507103616 19 197 12.9 19.3 0.00 0.00 0.00 62 987.6
20260507103217 19 193 14.5 22.5 0.00 0.00 0.00 63 987.6
20260507102817 19 238 16.1 22.5 0.00 0.00 0.00 62 987.7
20260507102415 19 205 11.3 17.7 0.00 0.00 0.00 64 987.7
20260507102015 18 236 14.5 24.1 0.00 0.00 0.00 64 987.6
20260507101214 18 203 8.0 17.7 0.00 0.00 0.00 67 987.6
20260507100814 18 203 11.3 22.5 0.00 0.00 0.00 69 987.7
20260507100412 18 223 11.3 17.7 0.00 0.00 0.00 69 987.7
20260507100012 18 214 14.5 20.9 0.00 0.00 0.00 70 987.7
20260507095210 18 198 6.4 16.1 0.00 0.00 0.00 71 987.7
20260507094810 18 237 14.5 22.5 0.00 0.00 0.00 72 987.6
20260507094400 18 225 16.1 20.9 0.00 0.00 0.00 71 987.6
20260507093959 18 222 12.9 17.7 0.00 0.00 0.00 70 987.6
20260507093559 18 222 11.3 16.1 0.00 0.00 0.00 71 987.5
20260507093158 18 213 11.3 14.5 0.00 0.00 0.00 71 987.5
20260507092758 18 218 9.7 16.1 0.00 0.00 0.00 70 987.5
20260507092356 18 208 9.7 14.5 0.00 0.00 0.00 71 987.5
20260507091956 18 236 4.8 12.9 0.00 0.00 0.00 72 987.4
20260507091556 18 214 9.7 12.9 0.00 0.00 0.00 71 987.4
20260507091156 18 225 8.0 16.1 0.00 0.00 0.00 72 987.3
20260507090756 18 249 4.8 8.0 0.00 0.00 0.00 73 987.3
20260507090354 18 268 8.0 12.9 0.00 0.00 0.00 73 987.3
20260507085954 18 255 9.7 12.9 0.00 0.00 0.00 73 987.2
20260507085554 18 250 12.9 17.7 0.00 0.00 0.00 71 987.2
20260507085154 18 248 9.7 14.5 0.00 0.00 0.00 71 987.2
20260507084754 18 242 11.3 17.7 0.00 0.00 0.00 71 987.1
20260507084352 18 226 8.0 12.9 0.00 0.00 0.00 71 987.1
20260507083950 18 201 4.8 8.0 0.00 0.00 0.00 72 987.1
20260507083550 18 233 11.3 20.9 0.00 0.00 0.00 71 987.1
20260507082750 18 228 6.4 11.3 0.00 0.00 0.00 72 987.0
20260507082348 18 237 6.4 9.7 0.00 0.00 0.00 73 986.9
20260507081948 18 251 8.0 12.9 0.00 0.00 0.00 73 986.9
20260507081548 18 263 6.4 11.3 0.00 0.00 0.00 73 986.8
20260507081148 18 254 6.4 11.3 0.00 0.00 0.00 73 986.8
20260507080748 18 251 6.4 9.7 0.00 0.00 0.00 73 986.7
20260507080346 17 238 4.8 9.7 0.00 0.00 0.00 74 986.7
20260507075947 17 167 6.4 9.7 0.00 0.00 0.00 75 986.7
20260507075547 17 234 6.4 11.3 0.00 0.00 0.00 75 986.7
20260507075147 17 231 3.2 8.0 0.00 0.00 0.00 75 986.6
20260507074345 17 210 6.4 12.9 0.00 0.00 0.00 76 986.5
20260507073945 17 282 4.8 9.7 0.00 0.00 0.00 78 986.5
20260507073545 17 213 1.6 4.8 0.00 0.00 0.00 78 986.5
20260507073142 17 225 6.4 9.7 0.00 0.00 0.00 78 986.4
20260507072743 17 250 3.2 6.4 0.00 0.00 0.00 79 986.4
20260507072341 17 269 3.2 4.8 0.00 0.00 0.00 79 986.4
20260507071941 17 301 1.6 3.2 0.00 0.00 0.00 80 986.4
20260507071541 17 242 3.2 4.8 0.00 0.00 0.00 81 986.4
20260507071133 17 243 3.2 6.4 0.00 0.00 0.00 81 986.4
20260507070732 17 258 1.6 6.4 0.00 0.00 0.00 81 986.3
20260507070330 17 253 4.8 9.7 0.00 0.00 0.00 81 986.3
20260507065929 17 206 1.6 9.7 0.00 0.00 0.00 82 986.3
20260507065529 17 264 1.6 3.2 0.00 0.00 0.00 83 986.2
20260507065128 17 284 1.6 4.8 0.00 0.00 0.00 84 986.3
20260507064728 17 30 1.6 3.2 0.00 0.00 0.00 85 986.2
20260507064326 16 47 3.2 3.2 0.00 0.00 0.00 85 986.2
20260507063926 16 47 3.2 4.8 0.00 0.00 0.00 86 986.2
20260507063526 16 236 1.6 1.6 0.00 0.00 0.00 86 986.2
20260507063126 16 332 3.2 6.4 0.00 0.00 0.00 87 986.2
20260507062726 16 41 3.2 4.8 0.00 0.00 0.00 89 986.2
20260507062324 16 296 1.6 3.2 0.00 0.00 0.00 89 986.2
20260507061921 16 273 1.6 3.2 0.00 0.00 0.00 90 986.2
20260507061521 16 219 1.6 1.6 0.00 0.00 0.00 91 986.1
20260507061121 15 196 3.2 4.8 0.00 0.00 0.00 92 986.0
20260507060721 15 196 4.8 8.0 0.00 0.00 0.00 93 986.1
20260507060319 15 219 3.2 6.4 0.00 0.00 0.00 94 986.1
20260507055919 15 207 4.8 8.0 0.00 0.00 0.00 94 986.0
20260507055518 15 231 4.8 8.0 0.00 0.00 0.00 96 986.0
20260507055118 15 210 3.2 6.4 0.00 0.00 0.00 97 986.0
20260507054718 15 217 1.6 4.8 0.00 0.00 0.00 97 986.0
20260507054316 15 226 3.2 4.8 0.00 0.00 0.00 97 985.9
20260507053916 15 223 6.4 9.7 0.00 0.00 0.00 97 985.9
20260507053516 15 219 6.4 8.0 0.00 0.00 0.00 97 985.8
20260507053116 15 240 6.4 8.0 0.00 0.00 0.00 97 985.6
20260507052716 15 230 3.2 6.4 0.00 0.00 0.00 97 985.6
20260507052314 15 221 6.4 8.0 0.00 0.00 0.00 97 985.6
20260507051915 15 218 4.8 6.4 0.00 0.00 0.00 98 985.5
20260507051514 15 253 3.2 6.4 0.00 0.00 0.00 98 985.5
20260507051112 15 240 6.4 12.9 0.00 0.00 0.00 98 985.5
20260507050712 15 233 8.0 11.3 0.00 0.00 0.00 98 985.4
20260507050310 15 249 8.0 9.7 0.00 0.00 0.00 98 985.3
20260507045910 15 252 4.8 6.4 0.00 0.00 0.00 98 985.2
20260507045510 15 268 0.0 0.0 0.00 0.00 0.00 99 985.0
20260507045110 15 267 3.2 3.2 0.00 0.00 0.00 99 985.0
20260507044710 15 264 3.2 3.2 0.00 0.00 0.00 99 985.0
20260507044300 15 228 3.2 3.2 0.00 0.00 0.00 99 985.1
20260507043900 15 195 1.6 3.2 0.00 0.00 0.00 99 985.1
20260507043456 15 184 3.2 4.8 0.00 0.00 0.00 99 985.1
20260507043055 15 177 4.8 6.4 0.00 0.00 0.00 99 985.0
20260507042655 15 170 3.2 6.4 0.00 0.00 0.00 99 984.8
20260507042254 15 180 3.2 3.2 0.00 0.00 0.00 99 984.8
20260507041854 15 204 3.2 4.8 0.00 0.00 0.00 99 984.9
20260507041454 15 217 4.8 6.4 0.00 0.00 0.00 99 984.9
20260507041053 15 230 4.8 6.4 0.00 0.00 0.00 99 984.8
20260507040653 15 248 3.2 4.8 0.00 0.00 0.00 99 984.8
20260507040252 15 248 3.2 4.8 0.00 0.00 0.00 99 984.8
20260507035848 15 248 3.2 3.2 0.00 0.00 0.00 99 984.7
20260507035449 15 225 3.2 4.8 0.00 0.00 0.00 99 984.7
20260507035049 15 225 3.2 4.8 0.00 0.00 0.00 99 984.7
20260507034649 15 240 3.2 4.8 0.00 0.00 0.00 99 984.6
20260507034247 15 232 3.2 4.8 0.00 0.00 0.00 99 984.6
20260507033846 15 218 3.2 4.8 0.00 0.00 0.00 99 984.7
20260507033446 15 227 6.4 8.0 0.00 0.00 0.00 99 984.7
20260507033046 15 234 6.4 9.7 0.00 0.00 0.00 99 984.7
20260507032646 15 242 6.4 8.0 0.00 0.00 0.00 99 984.6
20260507032244 15 77 0.0 3.2 0.00 0.00 0.00 99 984.5
20260507031843 15 74 1.6 1.6 0.00 0.00 0.00 99 984.4
20260507031444 15 74 1.6 1.6 0.00 0.00 0.00 99 984.4
20260507031044 15 77 1.6 3.2 0.00 0.00 0.00 99 984.3
20260507030644 15 77 1.6 3.2 0.00 0.00 0.00 99 984.3
20260507030242 15 14 1.6 3.2 0.00 0.00 0.00 99 984.2
20260507025841 15 325 1.6 1.6 0.00 0.00 0.00 99 984.2
20260507025441 15 325 1.6 1.6 0.00 0.00 0.00 29 984.2
20260507025039 14 324 1.6 1.6 0.00 0.00 0.00 29 984.2
20260507024639 14 325 1.6 1.6 0.00 0.00 0.00 29 984.2
20260507024237 14 300 1.6 4.8 0.00 0.00 0.00 29 984.1
20260507023837 14 277 1.6 1.6 0.00 0.00 0.00 29 984.2
20260507023437 14 279 1.6 1.6 0.00 0.00 0.00 29 984.2
20260507022637 14 306 1.6 1.6 0.00 0.00 0.00 29 984.2
20260507022235 14 306 1.6 1.6 0.00 0.00 0.00 29 984.0
20260507021835 14 303 3.2 3.2 0.00 0.00 0.00 29 984.1
20260507021435 14 282 1.6 3.2 0.00 0.00 0.00 29 984.0
20260507021028 13 297 3.2 4.8 0.00 0.00 0.00 29 984.0
20260507020627 14 278 4.8 6.4 0.00 0.00 0.00 29 984.1
20260507020224 14 286 4.8 6.4 0.00 0.00 0.00 29 984.1
20260507015823 14 306 4.8 6.4 0.00 0.00 0.00 29 984.1
20260507015423 14 309 6.4 8.0 0.00 0.00 0.00 29 984.0
20260507015023 14 305 4.8 4.8 0.00 0.00 0.00 29 984.0
20260507014623 14 296 6.4 8.0 0.00 0.00 0.00 29 984.0
20260507014221 14 287 9.7 11.3 0.00 0.00 0.00 29 984.1
20260507013819 14 298 9.7 11.3 0.00 0.00 0.00 29 984.1
20260507013419 14 299 9.7 14.5 0.00 0.00 0.00 29 984.2
20260507013018 14 304 11.3 16.1 0.00 0.00 0.00 29 984.1
20260507012618 14 300 14.5 17.7 0.00 0.00 0.00 29 984.1
20260507012216 14 293 11.3 14.5 0.00 0.00 0.00 29 984.1
20260507011816 14 281 11.3 12.9 0.00 0.00 0.00 29 984.2
20260507011416 14 270 9.7 12.9 0.00 0.00 0.00 29 984.2
20260507011016 14 269 9.7 14.5 0.00 0.00 0.00 29 984.2
20260507010616 14 272 12.9 16.1 0.00 0.00 0.00 29 984.3
20260507010214 15 275 12.9 19.3 0.00 0.00 0.00 99 984.2
20260507005814 15 282 12.9 16.1 0.00 0.00 0.00 99 984.2
20260507005414 15 269 12.9 16.1 0.00 0.00 0.00 99 984.2
20260507005013 15 269 9.7 14.5 0.00 0.00 0.00 98 984.2
20260507004613 15 284 12.9 17.7 0.00 0.00 0.00 97 984.2
20260507004211 15 276 11.3 12.9 0.00 0.00 0.00 96 984.2
20260507003811 15 260 9.7 17.7 0.00 0.00 0.00 96 984.2
20260507003411 15 267 9.7 11.3 0.00 0.00 0.00 95 984.1
20260507003009 15 259 8.0 11.3 0.00 0.00 0.00 95 984.1
20260507002609 15 245 9.7 14.5 0.00 0.00 0.00 95 984.2
20260507002207 15 256 8.0 11.3 0.00 0.00 0.00 95 984.2
20260507001807 15 256 6.4 9.7 0.00 0.00 0.00 95 984.1
20260507001407 15 252 6.4 9.7 0.00 0.00 0.00 95 984.1
20260507001007 15 253 8.0 11.3 0.00 0.00 0.00 94 984.1
20260507000607 15 261 9.7 12.9 0.00 0.00 0.00 94 984.0
20260507000205 15 269 8.0 11.3 0.00 0.00 0.00 94 983.9
20260506235805 15 264 9.7 11.3 0.00 0.00 0.00 94 983.9
20260506235405 15 258 11.3 12.9 0.00 0.00 0.00 94 983.9
20260506235005 15 250 12.9 14.5 0.00 0.00 0.00 93 983.9
20260506234605 15 263 9.7 11.3 0.00 0.00 0.00 92 983.8
20260506234156 15 320 4.8 6.4 0.00 0.00 0.00 91 983.7
20260506233755 15 13 1.6 3.2 0.00 0.00 0.00 91 983.6
20260506233354 15 9 0.0 1.6 0.00 0.00 0.00 91 983.6
20260506232553 15 10 1.6 4.8 0.00 0.00 0.00 91 983.6
20260506232151 15 190 0.0 1.6 0.00 0.00 0.00 91 983.6
20260506231749 15 173 0.0 1.6 0.00 0.00 0.00 91 983.6
20260506231349 15 71 1.6 4.8 0.00 0.00 0.00 92 983.5
20260506230949 15 47 6.4 8.0 0.00 0.00 0.00 92 983.4
20260506230549 15 85 3.2 6.4 0.00 0.00 0.00 91 983.5
20260506230147 15 161 3.2 4.8 0.00 0.00 0.00 91 983.6
20260506225747 15 175 3.2 4.8 0.00 0.00 0.00 91 983.6
20260506225347 15 83 3.2 6.4 0.00 0.00 0.00 92 983.5
20260506224947 15 48 4.8 9.7 0.00 0.00 0.00 92 983.5
20260506224547 15 50 4.8 6.4 0.00 0.00 0.00 92 983.6
20260506224145 15 108 1.6 1.6 0.00 0.00 0.00 92 983.7
20260506223745 15 99 1.6 3.2 0.00 0.00 0.00 92 983.8
20260506223346 15 73 1.6 3.2 0.00 0.00 0.00 93 983.7
20260506222946 15 46 3.2 4.8 0.00 0.00 0.00 93 983.7
20260506222546 15 37 4.8 8.0 0.00 0.00 0.00 94 983.7
20260506221743 15 21 4.8 9.7 0.00 0.00 0.00 94 983.7
20260506221343 15 24 4.8 8.0 0.00 0.00 0.00 94 983.8
20260506220941 15 55 4.8 8.0 0.00 0.00 0.00 94 983.7
20260506220541 15 46 6.4 9.7 0.00 0.00 0.00 95 983.7
20260506220139 15 15 4.8 8.0 0.00 0.00 0.00 95 983.7
20260506215339 15 29 4.8 8.0 0.00 0.00 0.00 95 983.8
20260506214939 15 5 1.6 6.4 0.00 0.00 0.00 95 983.8
20260506214539 15 333 3.2 8.0 0.00 0.00 0.00 96 983.9
20260506214137 15 344 4.8 9.7 0.00 0.00 0.00 96 983.9
20260506213737 15 3 9.7 12.9 0.00 0.00 0.00 96 983.9
20260506213337 15 328 9.7 12.9 0.00 0.00 0.00 96 984.0
20260506212937 15 302 9.7 12.9 0.00 0.00 0.00 96 984.1
20260506212537 15 295 11.3 14.5 0.00 0.00 0.00 96 984.2
20260506212135 15 297 11.3 14.5 0.00 0.00 0.00 95 984.1
20260506211735 15 294 11.3 14.5 0.00 0.00 0.00 95 984.0
20260506211335 15 293 11.3 16.1 0.00 0.00 0.00 94 983.9
20260506210928 15 276 8.0 11.3 0.00 0.00 0.00 95 983.9
20260506210527 15 284 16.1 19.3 0.00 0.00 0.00 94 983.9
20260506210124 15 287 12.9 16.1 0.00 0.00 0.00 94 983.9
20260506205721 15 277 16.1 22.5 0.00 0.00 0.00 93 984.0
20260506204920 16 272 12.9 17.7 0.00 0.00 0.00 91 983.9
20260506204520 16 271 14.5 19.3 0.00 0.00 0.00 90 983.8
20260506204118 16 265 11.3 16.1 0.00 0.00 0.00 90 983.8
20260506203718 16 273 12.9 16.1 0.00 0.00 0.00 89 983.7
20260506203319 15 253 12.9 19.3 0.00 0.00 0.00 89 983.8
20260506202919 15 271 12.9 17.7 0.00 0.00 0.00 88 983.5
20260506202519 15 286 8.0 11.3 0.00 0.00 0.00 87 983.2
20260506202117 15 316 8.0 12.9 0.00 0.00 0.00 87 983.1
20260506201717 15 332 8.0 11.3 0.00 0.00 0.00 87 983.2
20260506201317 15 319 4.8 6.4 0.00 0.00 0.00 87 983.2
20260506200917 15 314 11.3 14.5 0.00 0.00 0.00 88 983.2
20260506200517 15 319 14.5 17.7 0.00 0.00 0.00 88 983.2
20260506200115 16 9 17.7 22.5 0.00 0.00 0.00 88 983.1
20260506195715 16 335 16.1 20.9 0.00 0.00 0.00 86 983.3
20260506195315 16 291 6.4 11.3 0.00 0.00 0.00 86 983.5
20260506194913 16 242 8.0 11.3 0.00 0.00 0.00 86 983.4
20260506194513 16 290 11.3 14.5 0.00 0.00 0.00 86 983.2
20260506194111 16 312 17.7 24.1 0.00 0.00 0.00 86 983.1
20260506193711 16 308 20.9 25.7 0.00 0.00 0.00 84 983.1
20260506193311 17 303 19.3 24.1 0.00 0.00 0.00 82 983.2
20260506192911 17 298 19.3 22.5 0.00 0.00 0.00 80 983.3
20260506192511 17 286 16.1 24.1 0.00 0.00 0.00 77 983.3
20260506192109 17 296 14.5 20.9 0.00 0.00 0.00 76 983.3
20260506191709 17 301 14.5 19.3 0.00 0.00 0.00 76 983.2
20260506191307 17 284 19.3 27.4 0.00 0.00 0.00 74 983.2
20260506190907 18 273 17.7 22.5 0.00 0.00 0.00 73 983.2
20260506190507 18 292 14.5 17.7 0.00 0.00 0.00 71 982.9
20260506190105 18 309 11.3 12.9 0.00 0.00 0.00 70 982.7
20260506185705 18 279 8.0 11.3 0.00 0.00 0.00 69 982.6
20260506185307 18 250 4.8 6.4 0.00 0.00 0.00 68 982.6
20260506184906 18 294 6.4 8.0 0.00 0.00 0.00 67 982.6
20260506184505 18 264 9.7 12.9 0.00 0.00 0.00 68 982.5
20260506184056 18 275 14.5 22.5 0.00 0.00 0.00 67 982.5
20260506183652 19 285 16.1 19.3 0.00 0.00 0.00 65 982.4
20260506183251 19 302 12.9 14.5 0.00 0.00 0.00 64 982.3
20260506182851 20 288 8.0 11.3 0.00 0.00 0.00 63 982.2
20260506182450 20 288 16.1 19.3 0.00 0.00 0.00 62 982.2
20260506182048 21 280 19.3 22.5 0.00 0.00 0.00 60 982.2
20260506181648 21 244 11.3 19.3 0.00 0.00 0.00 57 982.0
20260506181248 21 210 3.2 3.2 0.00 0.00 0.00 56 981.9
20260506180848 21 164 1.6 3.2 0.00 0.00 0.00 56 981.8
20260506180448 21 156 1.6 3.2 0.00 0.00 0.00 55 981.7
20260506180045 21 154 1.6 3.2 0.00 0.00 0.00 55 981.7
20260506175645 21 146 1.6 1.6 0.00 0.00 0.00 55 981.6
20260506175246 21 148 1.6 3.2 0.00 0.00 0.00 55 981.6
20260506174845 21 131 0.0 0.0 0.00 0.00 0.00 54 981.6
20260506174446 21 116 0.0 1.6 0.00 0.00 0.00 54 981.5
20260506174043 21 122 1.6 6.4 0.00 0.00 0.00 54 981.5
20260506173643 21 131 3.2 9.7 0.00 0.00 0.00 54 981.5
20260506173243 21 115 1.6 4.8 0.00 0.00 0.00 53 981.6
20260506172841 21 129 1.6 3.2 0.00 0.00 0.00 53 981.7
20260506172441 22 124 1.6 3.2 0.00 0.00 0.00 53 981.6
20260506172039 22 112 3.2 6.4 0.00 0.00 0.00 52 981.6
20260506171639 22 112 3.2 6.4 0.00 0.00 0.00 52 981.6
20260506171239 22 111 3.2 6.4 0.00 0.00 0.00 52 981.6
20260506170838 22 122 3.2 6.4 0.00 0.00 0.00 51 981.6
20260506170438 22 110 4.8 9.7 0.00 0.00 0.00 51 981.6
20260506170036 22 121 6.4 9.7 0.00 0.00 0.00 51 981.7
20260506165636 22 125 4.8 9.7 0.00 0.00 0.00 51 981.7
20260506165234 22 109 4.8 6.4 0.00 0.00 0.00 51 981.7
20260506164834 22 117 4.8 8.0 0.00 0.00 0.00 50 981.7
20260506164434 22 106 4.8 8.0 0.00 0.00 0.00 50 981.8
20260506164032 22 123 3.2 4.8 0.00 0.00 0.00 50 981.9
20260506163632 22 111 4.8 9.7 0.00 0.00 0.00 50 981.9
20260506163232 22 121 3.2 6.4 0.00 0.00 0.00 50 981.9
20260506162832 22 128 3.2 6.4 0.00 0.00 0.00 50 982.0
20260506162432 22 172 3.2 9.7 0.00 0.00 0.00 50 982.0
20260506162030 22 100 1.6 3.2 0.00 0.00 0.00 50 982.1
20260506161628 22 97 0.0 1.6 0.00 0.00 0.00 50 982.1
20260506161228 22 98 1.6 3.2 0.00 0.00 0.00 50 982.1
20260506160820 22 177 0.0 3.2 0.00 0.00 0.00 50 982.2
20260506160419 22 190 1.6 3.2 0.00 0.00 0.00 50 982.1
20260506160017 22 165 1.6 3.2 0.00 0.00 0.00 51 982.2
20260506155616 22 190 1.6 3.2 0.00 0.00 0.00 51 982.3
20260506155216 22 202 3.2 6.4 0.00 0.00 0.00 51 982.3
20260506154816 22 199 3.2 4.8 0.00 0.00 0.00 51 982.4
20260506154415 22 217 4.8 8.0 0.00 0.00 0.00 51 982.4
20260506154013 22 224 6.4 9.7 0.00 0.00 0.00 50 982.4
20260506153613 22 214 4.8 6.4 0.00 0.00 0.00 50 982.5
20260506153213 22 175 1.6 8.0 0.00 0.00 0.00 50 982.5
20260506152813 22 190 4.8 8.0 0.00 0.00 0.00 50 982.6
20260506152413 22 203 4.8 8.0 0.00 0.00 0.00 50 982.6
20260506152011 22 204 9.7 11.3 0.00 0.00 0.00 50 982.6
20260506151612 22 199 11.3 19.3 0.00 0.00 0.00 49 982.6
20260506151211 22 187 8.0 19.3 0.00 0.00 0.00 48 982.6
20260506150809 22 167 6.4 19.3 0.00 0.00 0.00 48 982.6
20260506150409 22 189 6.4 14.5 0.00 0.00 0.00 47 982.7
20260506150006 22 168 8.0 12.9 0.00 0.00 0.00 47 982.7
20260506145606 22 141 6.4 16.1 0.00 0.00 0.00 46 982.7
20260506145206 23 161 4.8 9.7 0.00 0.00 0.00 46 982.7
20260506144806 23 173 3.2 6.4 0.00 0.00 0.00 45 982.7
20260506144406 23 305 3.2 4.8 0.00 0.00 0.00 45 982.7
20260506144004 23 236 3.2 4.8 0.00 0.00 0.00 45 982.8
20260506143604 23 235 3.2 4.8 0.00 0.00 0.00 45 982.8
20260506143202 23 281 1.6 3.2 0.00 0.00 0.00 44 982.7
20260506142802 23 268 4.8 8.0 0.00 0.00 0.00 44 982.7
20260506142402 23 273 8.0 11.3 0.00 0.00 0.00 44 982.7
20260506142000 23 265 3.2 6.4 0.00 0.00 0.00 44 982.7
20260506141559 23 234 3.2 8.0 0.00 0.00 0.00 44 982.8
20260506141159 23 242 4.8 9.7 0.00 0.00 0.00 44 982.8
20260506140759 23 228 3.2 6.4 0.00 0.00 0.00 45 982.8
20260506140359 23 238 4.8 9.7 0.00 0.00 0.00 44 982.9
20260506135957 23 272 8.0 11.3 0.00 0.00 0.00 44 982.9
20260506135555 23 267 1.6 4.8 0.00 0.00 0.00 44 982.9
20260506135155 23 170 3.2 6.4 0.00 0.00 0.00 45 983.0
20260506134755 23 200 6.4 9.7 0.00 0.00 0.00 44 983.1
20260506134355 23 235 9.7 16.1 0.00 0.00 0.00 44 983.1
20260506133945 23 217 8.0 14.5 0.00 0.00 0.00 44 983.1
20260506133545 23 187 9.7 14.5 0.00 0.00 0.00 44 983.1
20260506133143 23 199 4.8 8.0 0.00 0.00 0.00 44 983.1
20260506132742 23 224 8.0 12.9 0.00 0.00 0.00 44 983.1
20260506132342 23 215 9.7 14.5 0.00 0.00 0.00 44 983.1
20260506131940 23 204 11.3 16.1 0.00 0.00 0.00 44 983.1
20260506131540 23 188 16.1 22.5 0.00 0.00 0.00 44 983.1
20260506131140 23 214 9.7 16.1 0.00 0.00 0.00 44 983.1
20260506130740 23 229 9.7 14.5 0.00 0.00 0.00 44 983.1
20260506130340 23 200 12.9 20.9 0.00 0.00 0.00 44 983.0
20260506125938 23 225 16.1 19.3 0.00 0.00 0.00 43 983.1
20260506125538 23 200 14.5 19.3 0.00 0.00 0.00 44 983.1
20260506125138 23 206 16.1 22.5 0.00 0.00 0.00 43 983.2
20260506124736 23 208 17.7 29.0 0.00 0.00 0.00 43 983.2
20260506124336 23 218 9.7 16.1 0.00 0.00 0.00 43 983.1
20260506123934 23 256 16.1 22.5 0.00 0.00 0.00 44 983.2
20260506123534 23 222 11.3 19.3 0.00 0.00 0.00 44 983.3
20260506123133 23 188 6.4 14.5 0.00 0.00 0.00 44 983.2
20260506122734 23 188 9.7 19.3 0.00 0.00 0.00 44 983.3
20260506122334 22 171 11.3 22.5 0.00 0.00 0.00 45 983.4
20260506121932 22 176 11.3 17.7 0.00 0.00 0.00 45 983.4
20260506121532 22 209 16.1 19.3 0.00 0.00 0.00 45 983.4
20260506121132 22 199 12.9 22.5 0.00 0.00 0.00 45 983.4
20260506120731 22 201 12.9 20.9 0.00 0.00 0.00 46 983.3
20260506120331 22 174 12.9 19.3 0.00 0.00 0.00 47 983.2
20260506115929 22 190 12.9 29.0 0.00 0.00 0.00 48 983.2
20260506115529 22 197 6.4 11.3 0.00 0.00 0.00 49 983.2